Weather in Priisk Bol'shaya Rechka

Russia / Zabaykalsky Krai     50°07′58″N   108°27′57″E
temp.,
°C
wind,
m/s
gust,
m/s
humid.,
%
clouds,
%
prec.,
mm/h
press.,
hPa
HPBL,
m
18 april, sun
sun1800:00+4ssw11624 0.0 100413
03:00+3wnw2267100 0.0 100516
06:00+2nnw2482100 0.0 1009201
09:00+1nnw477499 0.1 10161138
12:00+2nnw3656100 0.1 10191401
15:00+5nnw453083 0.1 10171956
18:00+5n34272 0.0 10171861
21:000nne223835 0.0 102037
19 april, mon
mon1900:00−2nne113958 0.0 102118
03:00−3ene11405 0.0 102210
06:00−4se11440 0.0 102110
09:00+1sse11345 0.0 1021274
12:00+9sw24315 0.0 1016911
15:00+13wsw48315 0.0 10102205
18:00+14wsw48295 0.0 10082293
21:00+7ssw11445 0.0 100911
20 april, tue
tue2000:00+4ssw115398 0.0 100914
03:00+3s1160100 0.0 100812
06:00+3sse1164100 0.0 100716
09:00+7e1154100 0.0 1005139
12:00+14sw1434100 0.0 1004794
15:00+18sw410204 0.0 10012863
18:00+18wsw47180 0.0 10002434
21:00+10ne01390 0.0 100114
21 april, wed
wed2100:00+5nnw35595 0.0 1006111
03:00+1nnw246656 0.0 1009143
06:00−1nnw22734 0.0 101249
09:00+2n23617 0.0 1013603
12:00+6n224844 0.0 10111127
15:00+9n323910 0.0 10081338
18:00+9n43394 0.0 10091398
21:00+1n4762100 0.0 1016775
22 april, thu
thu2200:00−2nnw2374100 0.3 1021466
03:00−3n2384100 1.8 1023424
06:00−5nnw2389100 0.1 1024137
09:00−2ne2368100 0.1 1023556
12:00+3ne3353100 0.0 10221036
15:00+6nne2350100 0.0 10211253
18:00+6n3455100 0.0 1021752
21:000n2481100 0.0 1025302